Concordia, KS

7:26 AM CST on February 22, 2017 (GMT -0600)
Blosser Municipal

Weather History for KCNK - April, 2012

Change the Weather History Date:

Friday, April 27, 2012

  Actual Average Record
Temperature  
Mean Temperature 59 °F 57 °F  
Max Temperature 65 °F 69 °F 93 °F (1989)
Min Temperature 53 °F 45 °F 30 °F (1995)
Degree Days  
Heating Degree Days 6 9  
Month to date heating degree days 207 348  
Since 1 July heating degree days 4243 5239  
Cooling Degree Days 0 1  
Month to date cooling degree days 31 12  
Year to date cooling degree days 63 13  
Growing Degree Days 10 (Base 50)    
Moisture  
Dew Point 54 °F    
Average Humidity 80    
Maximum Humidity 100    
Minimum Humidity 60    
Precipitation  
Precipitation 1.53 in 0.10 in 1.71 in (1986)
Month to date precipitation 4.29 2.16  
Year to date precipitation 8.50 5.54  
Snow  
Snow 0.00 in 0.00 in T in (1955)
Month to date snowfall 0.0 0.5  
Year to date snowfall 5.8 13.7  
Since 1 July snowfall 6.7 20.2  
Snow Depth 0.00 in    
Sea Level Pressure  
Sea Level Pressure 29.57 in    
Wind  
Wind Speed 15 mph (ESE)    
Max Wind Speed 28 mph    
Max Gust Speed 56 mph    
Visibility 8 miles    
Events Fog , Rain , Thunderstorm    
T = Trace of Precipitation, MM = Missing Value Source: NWS Daily Summary

Daily Weather History Graph

Daily Weather History Graph

Search for Another Location

Airport or City:

Trip Planner

Search our weather history database for the weather conditions in past years. The results will help you decide how hot, cold, wet, or windy it might be!

Date:

Astronomy

Apr. 27, 2012 Rise Set
Actual Time 6:35 AM CDT 8:21 PM CDT
Civil Twilight 6:07 AM CDT 8:49 PM CDT
Nautical Twilight 5:32 AM CDT 9:24 PM CDT
Astronomical Twilight 4:55 AM CDT 10:02 PM CDT
Moon 11:15 AM CDT (4/27) 1:08 AM CDT (4/27)
Length of Visible Light 14h 42m
Length of Day
13h 45m
Waxing Crescent, 33% of the Moon is Illuminated
Apr 27
Waxing Crescent
Apr 29
First Quarter
May 5
Full
May 12
Last Quarter
May 20
New

Hourly Weather History & Observations

Time (CDT) Temp. Dew Point Humidity Pressure Visibility Wind Dir Wind Speed Gust Speed Precip Events Conditions
12:55 AM 62.1 °F 51.1 °F 67% 29.85 in 10.0 mi ESE 9.2 mph - N/A   Clear
1:55 AM 62.1 °F 50.0 °F 65% 29.80 in 10.0 mi East 12.7 mph - N/A   Clear
2:55 AM 63.0 °F 48.9 °F 60% 29.78 in 10.0 mi ESE 15.0 mph 23.0 mph N/A   Clear
3:55 AM 61.0 °F 48.0 °F 62% 29.71 in 10.0 mi East 18.4 mph 27.6 mph N/A   Clear
4:55 AM 61.0 °F 46.9 °F 60% 29.70 in 10.0 mi East 18.4 mph 26.5 mph N/A   Clear
5:55 AM 61.0 °F 46.9 °F 60% 29.74 in 10.0 mi ESE 15.0 mph 21.9 mph N/A   Clear
6:55 AM 60.1 °F 46.9 °F 62% 29.71 in 10.0 mi East 16.1 mph 29.9 mph N/A   Clear
7:55 AM 60.1 °F 48.0 °F 64% 29.66 in 10.0 mi East 19.6 mph 28.8 mph N/A   Clear
8:55 AM 63.0 °F 48.9 °F 60% 29.65 in 10.0 mi ESE 20.7 mph 32.2 mph N/A   Mostly Cloudy
9:10 AM 62.6 °F 48.2 °F 59% 29.66 in 10.0 mi ESE 17.3 mph 35.7 mph N/A   Overcast
9:55 AM 61.0 °F 51.1 °F 70% 29.62 in 10.0 mi ESE 20.7 mph 31.1 mph 0.00 in Rain , Thunderstorm Light Rain
10:18 AM 62.6 °F 51.8 °F 68% 29.63 in 10.0 mi ESE 16.1 mph 29.9 mph 0.00 in   Overcast
10:55 AM 64.0 °F 53.1 °F 67% 29.58 in 10.0 mi ESE 18.4 mph 35.7 mph 0.00 in   Overcast
11:55 AM 63.0 °F 53.1 °F 70% 29.57 in 10.0 mi ESE 23.0 mph 32.2 mph N/A   Overcast
12:55 PM 61.0 °F 57.9 °F 90% 29.54 in 3.0 mi SE 18.4 mph 29.9 mph 0.00 in Rain Light Rain
1:53 PM 60.8 °F 57.2 °F 88% 29.53 in 2.5 mi ESE 20.7 mph 31.1 mph 0.03 in Rain Light Rain
1:55 PM 60.1 °F 57.0 °F 90% 29.50 in 2.0 mi ESE 23.0 mph 31.1 mph 0.03 in Rain Rain
2:07 PM 60.8 °F 57.2 °F 88% 29.50 in 5.0 mi ESE 19.6 mph 29.9 mph 0.01 in Rain Light Rain
2:55 PM 62.1 °F 57.9 °F 86% 29.47 in 9.0 mi ESE 23.0 mph 34.5 mph 0.01 in   Overcast
3:55 PM 62.1 °F 57.0 °F 84% 29.40 in 10.0 mi East 23.0 mph 33.4 mph N/A   Overcast
4:02 PM 62.6 °F 57.2 °F 82% 29.39 in 10.0 mi East 24.2 mph 35.7 mph N/A Thunderstorm Thunderstorm
4:28 PM 60.8 °F 57.2 °F 88% 29.45 in 1.8 mi ESE 18.4 mph 28.8 mph 0.08 in Rain , Thunderstorm Heavy Thunderstorms and Rain
4:30 PM 60.8 °F 57.2 °F 88% 29.47 in 1.2 mi ESE 16.1 mph 27.6 mph 0.12 in Rain , Thunderstorm Heavy Thunderstorms and Rain
4:37 PM 60.8 °F 57.2 °F 88% 29.58 in 0.5 mi SSW 27.6 mph 56.4 mph 0.42 in Fog , Rain , Thunderstorm Heavy Thunderstorms and Rain
4:46 PM 59.0 °F 57.2 °F 94% 29.44 in 0.2 mi East 21.9 mph 51.8 mph 1.21 in Fog , Rain , Thunderstorm Heavy Thunderstorms and Rain
4:55 PM 59.0 °F 57.0 °F 93% 29.42 in 1.0 mi ENE 13.8 mph 29.9 mph 1.45 in Rain , Thunderstorm Thunderstorms and Rain
4:58 PM 59.0 °F 57.2 °F 94% 29.43 in 2.0 mi NE 18.4 mph 24.2 mph 0.01 in Rain , Thunderstorm Light Thunderstorms and Rain
5:00 PM 59.0 °F 57.2 °F 94% 29.44 in 3.0 mi ENE 16.1 mph 24.2 mph 0.01 in Rain , Thunderstorm Light Thunderstorms and Rain
5:11 PM 60.8 °F 57.2 °F 88% 29.44 in 8.0 mi ESE 8.1 mph 17.3 mph 0.04 in Rain , Thunderstorm Light Thunderstorms and Rain
5:48 PM 62.6 °F 60.8 °F 94% 29.45 in 10.0 mi Calm Calm - 0.04 in   Overcast
5:55 PM 64.9 °F 60.1 °F 84% 29.43 in 10.0 mi Calm Calm - 0.04 in   Overcast
6:55 PM 62.1 °F 57.0 °F 84% 29.47 in 10.0 mi East 9.2 mph - N/A   Scattered Clouds
7:55 PM 61.0 °F 57.9 °F 90% 29.49 in 10.0 mi Calm Calm - N/A   Clear
8:55 PM 60.1 °F 55.9 °F 86% 29.54 in 10.0 mi WSW 8.1 mph - N/A   Clear
9:55 PM 57.0 °F 55.0 °F 93% 29.59 in 10.0 mi West 8.1 mph - N/A   Clear
10:55 PM 55.9 °F 55.0 °F 97% 29.62 in 10.0 mi WNW 15.0 mph - N/A   Clear
11:55 PM 55.0 °F 53.1 °F 93% 29.69 in 10.0 mi West 13.8 mph - N/A   Clear